Location: Artiguedieu
(43.5000°N, 0.5454°E)
Time: 10:23:51
(UTC+00:00)

Vanguard 1 Rocket - Pass Details

Date: 04 August 2021
Orbit: 650 x 4226 km, 34.3° (Epoch: 24 September)

Event Time Altitude Azimuth Distance (km) Brightness Sun altitude
Rises 15:30:55 0° 275° (W) 5,396 12.2 39.1°
Reaches altitude 10° 15:37:02 10° 254° (WSW) 3,606 11.7 38.1°
Maximum altitude 15:41:05 14° 226° (SW) 2,794 10.9 37.4°
Drops below altitude 10° 15:44:17 10° 195° (SSW) 2,717 10.3 36.8°
Sets 15:47:45 0° 169° (S) 3,304 10.3 36.2°
